Location: Pcim
(49.7500°N, 19.9670°E)
Time: 01:29:30
(UTC+02:00)

CUBESAT XI-V - Visible Passes

Search period start: 19 April 2024 00:00
Search period end: 29 April 2024 00:00
Orbit: 658 x 681 km, 98.2° (Epoch: 18 April)

Date Brightness Start Highest point End Pass type
(mag) Time Alt. Az. Time Alt. Az. Time Alt. Az.
19 Apr ? 01:59:54 41° E 02:00:46 46° ENE 02:05:12 10° N visible
19 Apr ? 03:38:05 24° W 03:38:05 24° W 03:41:51 10° NW visible
20 Apr ? 00:54:34 11° E 00:56:53 15° NE 00:59:23 10° NNE visible
20 Apr ? 02:32:45 70° SSE 02:33:18 89° E 02:37:57 10° NNW visible
20 Apr ? 04:10:56 13° W 04:11:02 13° W 04:13:03 10° WNW visible
21 Apr ? 01:27:24 20° E 01:29:07 25° ENE 01:32:54 10° N visible
21 Apr ? 03:05:35 45° WSW 03:05:58 46° W 03:10:26 10° NNW visible
22 Apr ? 02:00:14 37° ESE 02:01:28 46° ENE 02:05:54 10° N visible
22 Apr ? 03:38:25 24° W 03:38:46 24° W 03:42:32 10° NW visible
23 Apr ? 00:55:02 10° E 00:57:33 15° NE 01:00:04 10° NNE visible
23 Apr ? 02:33:03 58° SSE 02:33:59 90° NE 02:38:37 10° NNW visible
23 Apr ? 04:11:14 12° W 04:11:43 12° W 04:13:40 10° WNW visible
24 Apr ? 01:27:40 19° E 01:29:45 26° ENE 01:33:31 10° N visible
24 Apr ? 03:05:51 42° SW 03:06:36 46° W 03:11:03 10° NNW visible
25 Apr ? 02:00:28 33° ESE 02:02:05 47° ENE 02:06:30 10° N visible
25 Apr ? 03:38:39 23° WSW 03:39:23 24° W 03:43:07 10° NW visible
26 Apr ? 00:55:35 10° E 00:58:07 15° NE 01:00:38 10° NNE visible
26 Apr ? 02:33:15 48° SSE 02:34:33 90° WSW 02:39:11 10° NNW visible
26 Apr ? 04:11:27 12° W 04:12:18 12° W 04:14:10 10° WNW visible
27 Apr ? 01:27:51 17° ESE 01:30:17 26° ENE 01:34:04 10° N visible
27 Apr ? 03:06:03 38° SW 03:07:08 45° W 03:11:35 10° NNW visible
28 Apr ? 02:00:37 29° SE 02:02:35 47° ENE 02:07:00 10° N visible
28 Apr ? 03:38:48 22° WSW 03:39:53 24° W 03:43:36 10° NW visible
